Location: Waco, TX
(31.5481°N, 97.1672°W)
Time: 01:13:29
(UTC-05:00)

N. Korean satellite - Visible Passes

Search period start: 23 October 2017 00:00
Search period end: 02 November 2017 00:00
Orbit: 459 x 517 km, 97.2° (Epoch: 22 October)

Date Brightness Start Highest point End Pass type
(mag) Time Alt. Az. Time Alt. Az. Time Alt. Az.
23 Oct 6.4 19:33:38 10° SSE 19:37:08 74° ENE 19:40:36 10° N visible
24 Oct 7.2 19:10:43 10° SE 19:13:51 31° ENE 19:16:58 10° N visible
25 Oct 9.3 20:21:18 10° SW 20:23:57 20° W 20:26:36 10° NW visible
26 Oct 7.7 19:57:12 10° S 20:00:33 44° W 20:03:53 10° NNW visible
27 Oct 6.3 19:33:44 10° SSE 19:37:12 75° ENE 19:40:39 10° N visible
28 Oct 7.2 19:10:48 10° SE 19:13:54 32° ENE 19:17:01 10° N visible
29 Oct 9.3 20:21:24 10° SW 20:24:01 20° W 20:26:36 10° NW visible
30 Oct 7.7 19:57:16 10° S 20:00:35 43° W 20:03:53 10° NNW visible
31 Oct 6.3 19:33:46 10° SSE 19:37:13 76° ENE 19:40:39 10° N visible
01 Nov 7.2 19:10:49 10° SE 19:13:54 32° ENE 19:17:00 10° N visible
